This is the latest recevied weather packets stored in our database for station/object HB9TJR-8. If no packets are shown the sender has not sent any weather packets the latest 10 day(s).
| Time | Temp. | Humidity | Pressure | Rain* | Wind** | Luminosity | Snow |
|---|---|---|---|---|---|---|---|
| 1787725517 | 21.11° C | 74% | 966.3 hPa | 0 mm | - | - | - |
| 1787724717 | 21.11° C | 74% | 966.2 hPa | 0 mm | - | - | - |
| 1787723915 | 21.67° C | 75% | 966.2 hPa | 0 mm | - | - | - |
| 1787723114 | 21.11° C | 75% | 966.1 hPa | 0 mm | - | - | - |
| 1787722313 | 20.56° C | 76% | 966.1 hPa | 0 mm | - | - | - |
| 1787721512 | 20° C | 76% | 966 hPa | 0 mm | - | - | - |
| 1787720711 | 20° C | 77% | 966.1 hPa | 0 mm | - | - | - |
| 1787719910 | 20° C | 77% | 965.9 hPa | 0 mm | - | - | - |
| 1787719109 | 20° C | 77% | 965.9 hPa | 0 mm | - | - | - |
| 1787718308 | 20° C | 77% | 965.9 hPa | 0 mm | - | - | - |
| 1787717507 | 20° C | 76% | 965.8 hPa | 0 mm | - | - | - |
| 1787716706 | 20° C | 76% | 965.7 hPa | 0 mm | - | - | - |
| 1787715905 | 20.56° C | 76% | 965.7 hPa | 0 mm | - | - | - |
| 1787715104 | 20.56° C | 76% | 965.7 hPa | 0 mm | - | - | - |
| 1787714303 | 20.56° C | 75% | 965.6 hPa | 0 mm | - | - | - |
| 1787713501 | 20.56° C | 75% | 965.6 hPa | 0 mm | - | - | - |
| 1787712701 | 20.56° C | 75% | 965.6 hPa | 0 mm | - | - | - |
| 1787711899 | 21.11° C | 75% | 965.5 hPa | 0 mm | - | - | - |
| 1787711098 | 21.11° C | 75% | 965.5 hPa | 0 mm | - | - | - |
| 1787710297 | 21.11° C | 75% | 965.4 hPa | 0 mm | - | - | - |
| 1787709496 | 21.11° C | 75% | 965.5 hPa | 0 mm | - | - | - |
| 1787708696 | 21.11° C | 75% | 965.5 hPa | 0 mm | - | - | - |
| 1787707894 | 21.11° C | 75% | 965.3 hPa | 0 mm | - | - | - |
| 1787707093 | 21.11° C | 75% | 965.1 hPa | 0 mm | - | - | - |
| 1787706292 | 21.11° C | 75% | 965 hPa | 0 mm | - | - | - |
* Rain latest hour (hover to see other rain measurements)
** Current wind speed in m/s (hover to see current wind gust speed)